SWA1632 KCLT-KDEN

Flight info

Callsign SWA1632
Flight time N/A
Altitude 34000
Route BOBZY5 BNA FAM J112 BUM J110 GCK KIISS CLASH4
Aircraft B738/M-SDE2E3FGHIRWXY/LB1

Departure

Time N/A
Airport Charlotte Douglas International Airport (KCLT)

Arrival

Time 2026-05-03 22:33
Airport Denver International Airport (KDEN)
Time Latitude Longitude Altitude Speed Heading
2026-05-03 20:52 38.00842 -92.47123 33949 ft 381 kts 283°
2026-05-03 20:52 38.01299 -92.50385 33951 ft 381 kts 283°
2026-05-03 20:53 38.02223 -92.56997 33955 ft 381 kts 283°
2026-05-03 20:53 38.03145 -92.63617 33962 ft 381 kts 283°
2026-05-03 20:54 38.04059 -92.70213 33957 ft 381 kts 283°
2026-05-03 20:54 38.05358 -92.79675 33961 ft 382 kts 283°
2026-05-03 20:55 38.06254 -92.86244 33942 ft 382 kts 283°
2026-05-03 20:55 38.07155 -92.92883 33943 ft 382 kts 283°
2026-05-03 20:56 38.08054 -92.99532 33938 ft 382 kts 282°
2026-05-03 20:56 38.08943 -93.06137 33916 ft 382 kts 282°
2026-05-03 20:57 38.09833 -93.12775 33937 ft 382 kts 282°
2026-05-03 20:57 38.10721 -93.19426 33945 ft 382 kts 282°
2026-05-03 20:58 38.11605 -93.26082 33942 ft 382 kts 282°
2026-05-03 20:58 38.12486 -93.32743 33944 ft 383 kts 282°
2026-05-03 20:59 38.13359 -93.39373 33942 ft 383 kts 282°
2026-05-03 20:59 38.14234 -93.46048 33985 ft 383 kts 282°
2026-05-03 21:00 38.14958 -93.51598 33945 ft 383 kts 282°
2026-05-03 21:00 38.15971 -93.59391 33936 ft 381 kts 282°
2026-05-03 21:01 38.16821 -93.65972 33922 ft 380 kts 282°
2026-05-03 21:01 38.17671 -93.72582 33926 ft 378 kts 282°
2026-05-03 21:02 38.18517 -93.79184 33933 ft 378 kts 282°
2026-05-03 21:02 38.19350 -93.85717 33936 ft 377 kts 282°
2026-05-03 21:03 38.20186 -93.92298 33934 ft 377 kts 282°
2026-05-03 21:03 38.21019 -93.98885 33934 ft 378 kts 282°
2026-05-03 21:04 38.21849 -94.05484 33935 ft 378 kts 282°
2026-05-03 21:04 38.22672 -94.12057 33934 ft 379 kts 282°
2026-05-03 21:05 38.23499 -94.18692 33927 ft 380 kts 282°
2026-05-03 21:05 38.24323 -94.25335 33923 ft 381 kts 282°
2026-05-03 21:06 38.25147 -94.32012 33934 ft 382 kts 282°
2026-05-03 21:06 38.25967 -94.38690 33935 ft 383 kts 282°
2026-05-03 21:07 38.26781 -94.45346 33932 ft 383 kts 282°
2026-05-03 21:07 38.27156 -94.52087 33933 ft 388 kts 272°
2026-05-03 21:08 38.26917 -94.58952 33911 ft 388 kts 272°
2026-05-03 21:08 38.26687 -94.65803 33927 ft 387 kts 272°
2026-05-03 21:09 38.26466 -94.72599 33931 ft 387 kts 272°
2026-05-03 21:09 38.26247 -94.79396 33936 ft 387 kts 272°
2026-05-03 21:10 38.26023 -94.86230 33938 ft 387 kts 272°
2026-05-03 21:10 38.25796 -94.93061 33931 ft 387 kts 272°
2026-05-03 21:11 38.25564 -94.99888 33933 ft 386 kts 271°
2026-05-03 21:11 38.25331 -95.06647 33926 ft 386 kts 271°
2026-05-03 21:12 38.25092 -95.13476 33923 ft 386 kts 271°
2026-05-03 21:12 38.24849 -95.20295 33926 ft 386 kts 271°
2026-05-03 21:13 38.24603 -95.27093 33918 ft 387 kts 271°
2026-05-03 21:13 38.24352 -95.33925 33899 ft 387 kts 271°
2026-05-03 21:14 38.24096 -95.40758 33916 ft 387 kts 271°
2026-05-03 21:14 38.23837 -95.47599 33926 ft 387 kts 271°
2026-05-03 21:15 38.23573 -95.54444 33927 ft 388 kts 271°
2026-05-03 21:15 38.23307 -95.61240 33926 ft 388 kts 271°
2026-05-03 21:16 38.23035 -95.68103 33925 ft 388 kts 271°
2026-05-03 21:16 38.22758 -95.74965 33923 ft 389 kts 271°
2026-05-03 21:17 38.22525 -95.80669 33926 ft 389 kts 271°
2026-05-03 21:17 38.22196 -95.88618 33929 ft 389 kts 270°
2026-05-03 21:18 38.21909 -95.95444 33932 ft 389 kts 270°
2026-05-03 21:18 38.21634 -96.01912 33918 ft 389 kts 270°
2026-05-03 21:19 38.21337 -96.08765 33920 ft 388 kts 270°
2026-05-03 21:19 38.21040 -96.15555 33916 ft 387 kts 270°
2026-05-03 21:20 38.20738 -96.22365 33921 ft 387 kts 270°
2026-05-03 21:20 38.20432 -96.29196 33920 ft 387 kts 270°
2026-05-03 21:21 38.20120 -96.36040 33919 ft 388 kts 270°
2026-05-03 21:21 38.19805 -96.42887 33918 ft 388 kts 270°
2026-05-03 21:22 38.19488 -96.49692 33910 ft 389 kts 270°
2026-05-03 21:22 38.19164 -96.56545 33915 ft 389 kts 270°
2026-05-03 21:23 38.18835 -96.63408 33913 ft 389 kts 270°
2026-05-03 21:23 38.18502 -96.70281 33905 ft 390 kts 270°
2026-05-03 21:24 38.18168 -96.77116 33908 ft 390 kts 270°
2026-05-03 21:24 38.17826 -96.83993 33905 ft 390 kts 270°
2026-05-03 21:25 38.17476 -96.90871 33902 ft 390 kts 269°
2026-05-03 21:25 38.17122 -96.97744 33909 ft 390 kts 269°
2026-05-03 21:26 38.16766 -97.04591 33910 ft 391 kts 269°
2026-05-03 21:26 38.16404 -97.11475 33911 ft 391 kts 269°
2026-05-03 21:27 38.16038 -97.18361 33920 ft 390 kts 269°
2026-05-03 21:27 38.15669 -97.25228 33927 ft 390 kts 269°
2026-05-03 21:28 38.15302 -97.31998 33923 ft 390 kts 269°
2026-05-03 21:28 38.14928 -97.38834 33917 ft 390 kts 269°
2026-05-03 21:29 38.14552 -97.45711 33911 ft 390 kts 269°
2026-05-03 21:29 38.14174 -97.52579 33880 ft 390 kts 269°
2026-05-03 21:30 38.13795 -97.59396 33880 ft 390 kts 269°
2026-05-03 21:30 38.13409 -97.66260 33890 ft 389 kts 269°
2026-05-03 21:31 38.13019 -97.73121 33894 ft 389 kts 269°
2026-05-03 21:31 38.12625 -97.79980 33898 ft 389 kts 269°
2026-05-03 21:32 38.12227 -97.86836 33898 ft 389 kts 269°
2026-05-03 21:32 38.11828 -97.93654 33897 ft 390 kts 269°
2026-05-03 21:33 38.11423 -98.00497 33885 ft 390 kts 269°
2026-05-03 21:33 38.11014 -98.07331 33883 ft 390 kts 269°
2026-05-03 21:34 38.10600 -98.14190 33874 ft 390 kts 269°
2026-05-03 21:34 38.10184 -98.21017 33870 ft 390 kts 269°
2026-05-03 21:35 38.09761 -98.27895 33867 ft 391 kts 269°
2026-05-03 21:35 38.09335 -98.34759 33844 ft 391 kts 268°
2026-05-03 21:36 38.08904 -98.41641 33855 ft 391 kts 268°
2026-05-03 21:36 38.08466 -98.48472 33852 ft 391 kts 268°
2026-05-03 21:37 38.08020 -98.55359 33850 ft 391 kts 268°
2026-05-03 21:37 38.07571 -98.62246 33855 ft 392 kts 268°
2026-05-03 21:38 38.07117 -98.69141 33859 ft 392 kts 268°
2026-05-03 21:38 38.06664 -98.75972 33855 ft 392 kts 268°
2026-05-03 21:39 38.06203 -98.82849 33858 ft 391 kts 268°
2026-05-03 21:39 38.05738 -98.89742 33862 ft 391 kts 268°
2026-05-03 21:40 38.05268 -98.96627 33864 ft 391 kts 268°
2026-05-03 21:40 38.04799 -99.03451 33864 ft 391 kts 268°
2026-05-03 21:41 38.04322 -99.10334 33850 ft 391 kts 268°
2026-05-03 21:41 38.03842 -99.17200 33861 ft 391 kts 268°
2026-05-03 21:42 38.03358 -99.24069 33862 ft 391 kts 268°
2026-05-03 21:42 38.02873 -99.30890 33854 ft 391 kts 268°
2026-05-03 21:43 38.02381 -99.37749 33849 ft 391 kts 267°
2026-05-03 21:43 38.01886 -99.44608 33844 ft 391 kts 268°
2026-05-03 21:44 38.01386 -99.51470 33843 ft 390 kts 267°
2026-05-03 21:44 38.00882 -99.58327 33840 ft 390 kts 267°
2026-05-03 21:45 38.00378 -99.65137 33843 ft 391 kts 267°
2026-05-03 21:45 37.99866 -99.71994 33834 ft 391 kts 267°
2026-05-03 21:46 37.99350 -99.78855 33837 ft 391 kts 267°
2026-05-03 21:46 37.98831 -99.85706 33818 ft 390 kts 266°
2026-05-03 21:47 37.98311 -99.92505 33829 ft 390 kts 266°
2026-05-03 21:47 37.97784 -99.99348 33823 ft 390 kts 266°
2026-05-03 21:48 37.97254 -100.06184 33821 ft 390 kts 266°
2026-05-03 21:48 37.96720 -100.13014 33864 ft 390 kts 266°
2026-05-03 21:49 37.96186 -100.19797 33850 ft 389 kts 266°
2026-05-03 21:49 37.95645 -100.26622 33840 ft 389 kts 266°
2026-05-03 21:50 37.95099 -100.33452 33828 ft 389 kts 266°
2026-05-03 21:50 37.94549 -100.40280 33845 ft 390 kts 266°
2026-05-03 21:51 37.93999 -100.47062 33859 ft 390 kts 266°
2026-05-03 21:51 37.93442 -100.53882 33874 ft 390 kts 266°
2026-05-03 21:52 37.92885 -100.60659 33877 ft 390 kts 266°
2026-05-03 21:52 37.92344 -100.67480 33884 ft 389 kts 269°
2026-05-03 21:53 37.92981 -100.74234 33886 ft 389 kts 283°
2026-05-03 21:53 37.94925 -100.80574 33906 ft 391 kts 294°
2026-05-03 21:54 37.97342 -100.86757 33815 ft 392 kts 294°
2026-05-03 21:54 37.99759 -100.92957 33814 ft 392 kts 294°
2026-05-03 21:55 38.02154 -100.99175 33813 ft 392 kts 294°
2026-05-03 21:55 38.04536 -101.05398 33811 ft 392 kts 293°
2026-05-03 21:56 38.06909 -101.11617 33809 ft 392 kts 293°
2026-05-03 21:56 38.09281 -101.17846 33815 ft 392 kts 293°
2026-05-03 21:57 38.11623 -101.24008 33830 ft 392 kts 293°
2026-05-03 21:57 38.13940 -101.30117 33812 ft 392 kts 293°
2026-05-03 21:58 38.16298 -101.36346 33805 ft 392 kts 293°
2026-05-03 21:58 38.18659 -101.42592 33812 ft 392 kts 293°
2026-05-03 21:59 38.21357 -101.48630 33821 ft 394 kts 300°
2026-05-03 21:59 38.24345 -101.54488 33813 ft 395 kts 300°
2026-05-03 22:00 38.27328 -101.60358 33819 ft 395 kts 300°
2026-05-03 22:00 38.30270 -101.66221 33815 ft 396 kts 300°
2026-05-03 22:01 38.33221 -101.72139 33810 ft 396 kts 300°
2026-05-03 22:01 38.36173 -101.78077 33816 ft 397 kts 299°
2026-05-03 22:02 38.39126 -101.84028 33814 ft 397 kts 299°
2026-05-03 22:02 38.42078 -101.89989 33811 ft 398 kts 299°
2026-05-03 22:03 38.45028 -101.95956 33810 ft 398 kts 299°
2026-05-03 22:03 38.47986 -102.01948 33811 ft 398 kts 299°
2026-05-03 22:04 38.50925 -102.07915 33823 ft 399 kts 299°
2026-05-03 22:04 38.53834 -102.13832 33816 ft 399 kts 299°
2026-05-03 22:05 38.56787 -102.19848 33805 ft 399 kts 299°
2026-05-03 22:05 38.59728 -102.25866 33810 ft 399 kts 299°
2026-05-03 22:06 38.62660 -102.31887 33805 ft 399 kts 299°
2026-05-03 22:06 38.65594 -102.37927 33814 ft 399 kts 299°
2026-05-03 22:07 38.68496 -102.43912 33808 ft 399 kts 298°
2026-05-03 22:07 38.71418 -102.49948 33809 ft 399 kts 298°
2026-05-03 22:08 38.74337 -102.55988 33822 ft 399 kts 298°
2026-05-03 22:08 38.77253 -102.62035 33823 ft 399 kts 298°
2026-05-03 22:09 38.80169 -102.68093 33819 ft 399 kts 298°
2026-05-03 22:10 38.84043 -102.76158 33819 ft 399 kts 298°
2026-05-03 22:10 38.87427 -102.83223 33397 ft 404 kts 298°
2026-05-03 22:10 38.88880 -102.86258 33096 ft 395 kts 298°
2026-05-03 22:11 38.90303 -102.89232 32779 ft 387 kts 298°
2026-05-03 22:11 38.91697 -102.92150 32445 ft 381 kts 298°
2026-05-03 22:11 38.93069 -102.95026 32108 ft 375 kts 298°
2026-05-03 22:11 38.94383 -102.97782 31764 ft 370 kts 298°
2026-05-03 22:12 38.95267 -102.99636 31555 ft 367 kts 298°
2026-05-03 22:12 38.96603 -103.02406 31209 ft 362 kts 299°
2026-05-03 22:12 38.97929 -103.05137 30869 ft 358 kts 299°
2026-05-03 22:12 38.99242 -103.07844 30530 ft 355 kts 299°
2026-05-03 22:13 39.00954 -103.11383 30081 ft 350 kts 299°
2026-05-03 22:13 39.01821 -103.13177 29854 ft 348 kts 299°
2026-05-03 22:13 39.03096 -103.15817 29438 ft 346 kts 299°
2026-05-03 22:13 39.04342 -103.18402 29047 ft 343 kts 299°
2026-05-03 22:14 39.05585 -103.20998 28683 ft 339 kts 299°
2026-05-03 22:14 39.06811 -103.23577 28305 ft 336 kts 299°
2026-05-03 22:14 39.08024 -103.26133 27925 ft 334 kts 299°
2026-05-03 22:14 39.09227 -103.28673 27573 ft 331 kts 299°
2026-05-03 22:15 39.10422 -103.31197 27220 ft 329 kts 299°
2026-05-03 22:15 39.11609 -103.33705 26866 ft 326 kts 299°
2026-05-03 22:15 39.12785 -103.36190 26527 ft 324 kts 299°
2026-05-03 22:15 39.13951 -103.38657 26190 ft 322 kts 299°
2026-05-03 22:16 39.15114 -103.41119 25851 ft 320 kts 299°
2026-05-03 22:16 39.16269 -103.43566 25519 ft 318 kts 299°
2026-05-03 22:16 39.17413 -103.45991 25195 ft 316 kts 299°
2026-05-03 22:16 39.18554 -103.48412 24871 ft 315 kts 299°
2026-05-03 22:17 39.19700 -103.50848 24131 ft 325 kts 298°
2026-05-03 22:17 39.20908 -103.53423 23059 ft 346 kts 299°
2026-05-03 22:17 39.22155 -103.56076 22346 ft 352 kts 299°
2026-05-03 22:17 39.23417 -103.58760 21877 ft 350 kts 299°
2026-05-03 22:18 39.24678 -103.61443 21448 ft 347 kts 299°
2026-05-03 22:18 39.25926 -103.64099 21029 ft 345 kts 299°
2026-05-03 22:18 39.27164 -103.66740 20623 ft 343 kts 300°
2026-05-03 22:18 39.28391 -103.69358 20220 ft 341 kts 300°
2026-05-03 22:19 39.29665 -103.71943 19723 ft 342 kts 302°
2026-05-03 22:19 39.31004 -103.74475 19320 ft 341 kts 303°
2026-05-03 22:19 39.32351 -103.76982 18905 ft 340 kts 303°
2026-05-03 22:19 39.33700 -103.79495 18510 ft 339 kts 303°
2026-05-03 22:20 39.35018 -103.81965 18097 ft 338 kts 303°
2026-05-03 22:20 39.36334 -103.84444 17656 ft 337 kts 303°
2026-05-03 22:20 39.37649 -103.86932 17153 ft 335 kts 303°
2026-05-03 22:20 39.38956 -103.89409 16769 ft 332 kts 303°
2026-05-03 22:21 39.40244 -103.91855 16396 ft 330 kts 303°
2026-05-03 22:21 39.41523 -103.94285 16220 ft 322 kts 303°
2026-05-03 22:21 39.42770 -103.96655 16078 ft 314 kts 303°
2026-05-03 22:21 39.43977 -103.98949 15928 ft 305 kts 303°
2026-05-03 22:22 39.45129 -104.01245 15629 ft 302 kts 300°
2026-05-03 22:22 39.46219 -104.03550 15329 ft 300 kts 300°
2026-05-03 22:22 39.47306 -104.05855 15028 ft 298 kts 300°
2026-05-03 22:22 39.48389 -104.08137 14719 ft 297 kts 300°
2026-05-03 22:23 39.49464 -104.10396 14405 ft 296 kts 300°
2026-05-03 22:23 39.50661 -104.12569 14067 ft 298 kts 315°
2026-05-03 22:23 39.52407 -104.13990 13840 ft 299 kts 337°
2026-05-03 22:23 39.54427 -104.14536 13669 ft 299 kts 354°
2026-05-03 22:24 39.56486 -104.14567 13517 ft 295 kts 357°
2026-05-03 22:24 39.58504 -104.14561 13329 ft 292 kts 357°
2026-05-03 22:24 39.60518 -104.14575 13176 ft 287 kts 356°
2026-05-03 22:24 39.62500 -104.14605 13026 ft 283 kts 356°
2026-05-03 22:25 39.64449 -104.14641 12878 ft 279 kts 356°
2026-05-03 22:25 39.66344 -104.14969 12588 ft 272 kts 333°
2026-05-03 22:25 39.67916 -104.16236 12412 ft 263 kts 321°
2026-05-03 22:25 39.69372 -104.17671 12140 ft 262 kts 320°
2026-05-03 22:26 39.70806 -104.19122 11888 ft 260 kts 320°
2026-05-03 22:26 39.72229 -104.20564 11642 ft 258 kts 320°
2026-05-03 22:26 39.73642 -104.21990 11403 ft 257 kts 321°
2026-05-03 22:26 39.75049 -104.23404 11160 ft 255 kts 320°
2026-05-03 22:27 39.76453 -104.24810 10920 ft 254 kts 321°
2026-05-03 22:27 39.77832 -104.26190 10675 ft 253 kts 320°
2026-05-03 22:27 39.79241 -104.27599 10429 ft 252 kts 320°
2026-05-03 22:27 39.80609 -104.28966 10184 ft 251 kts 320°
2026-05-03 22:28 39.81993 -104.30347 9954 ft 251 kts 321°
2026-05-03 22:28 39.83371 -104.31723 9700 ft 250 kts 320°
2026-05-03 22:28 39.84730 -104.33083 9442 ft 249 kts 320°
2026-05-03 22:28 39.86103 -104.34457 9182 ft 248 kts 320°
2026-05-03 22:29 39.87237 -104.36102 8922 ft 245 kts 293°
2026-05-03 22:29 39.87570 -104.38234 8687 ft 239 kts 274°
2026-05-03 22:29 39.87596 -104.40373 8400 ft 233 kts 271°
2026-05-03 22:29 39.87593 -104.42452 8115 ft 227 kts 271°
2026-05-03 22:30 39.87596 -104.44456 7962 ft 214 kts 271°
2026-05-03 22:30 39.87604 -104.46274 7878 ft 193 kts 273°
2026-05-03 22:30 39.87614 -104.47934 7741 ft 172 kts 273°
2026-05-03 22:30 39.87629 -104.49487 7335 ft 173 kts 272°
2026-05-03 22:31 39.87642 -104.51021 7033 ft 166 kts 271°
2026-05-03 22:31 39.87654 -104.52506 6775 ft 160 kts 271°
2026-05-03 22:31 39.87663 -104.53911 6558 ft 151 kts 274°
2026-05-03 22:31 39.87673 -104.55240 6338 ft 143 kts 272°
2026-05-03 22:32 39.87689 -104.56515 6150 ft 139 kts 274°
2026-05-03 22:32 39.87706 -104.57747 5939 ft 138 kts 274°
2026-05-03 22:32 39.87729 -104.59026 5838 ft 145 kts 274°
2026-05-03 22:32 39.87726 -104.60364 5689 ft 147 kts 270°
2026-05-03 22:33 39.87719 -104.61655 5474 ft 138 kts 272°
2026-05-03 22:33 39.87724 -104.62800 5365 ft 114 kts 272°
2026-05-03 22:33 39.87730 -104.63318 5372 ft 28 kts 271°
2026-05-03 22:33 39.87733 -104.63576 5370 ft 31 kts 270°
2026-05-03 22:34 39.87737 -104.63889 5371 ft 38 kts 270°
2026-05-03 22:34 39.87738 -104.64247 5372 ft 36 kts 266°
2026-05-03 22:34 39.87692 -104.64531 5377 ft 29 kts 247°
2026-05-03 22:34 39.87602 -104.64757 5380 ft 27 kts 247°
2026-05-03 22:35 39.87582 -104.64993 5383 ft 25 kts 270°
2026-05-03 22:35 39.87583 -104.65216 5385 ft 24 kts 270°
2026-05-03 22:35 39.87585 -104.65443 5386 ft 23 kts 271°
2026-05-03 22:35 39.87587 -104.65597 5387 ft 22 kts 269°
2026-05-03 22:36 39.87515 -104.65699 5386 ft 17 kts 205°
2026-05-03 22:36 39.87479 -104.65833 5385 ft 16 kts 270°
2026-05-03 22:36 39.87480 -104.65993 5389 ft 23 kts 270°
2026-05-03 22:36 39.87482 -104.66225 5390 ft 13 kts 271°
2026-05-03 22:37 39.87443 -104.66322 5388 ft 13 kts 199°
2026-05-03 22:37 39.87350 -104.66331 5385 ft 14 kts 180°
2026-05-03 22:37 39.87217 -104.66332 5377 ft 27 kts 180°
2026-05-03 22:37 39.86976 -104.66335 5371 ft 40 kts 179°
2026-05-03 22:38 39.86682 -104.66338 5383 ft 44 kts 180°
2026-05-03 22:38 39.86373 -104.66344 5391 ft 47 kts 180°
2026-05-03 22:38 39.86148 -104.66349 5391 ft 15 kts 192°
2026-05-03 22:38 39.86106 -104.66451 5386 ft 14 kts 257°
2026-05-03 22:39 39.86106 -104.66506 5388 ft 6 kts 291°
2026-05-03 22:39 39.86127 -104.66624 5383 ft 22 kts 273°
2026-05-03 22:39 39.86129 -104.66848 5379 ft 26 kts 271°
2026-05-03 22:39 39.86136 -104.67064 5377 ft 19 kts 287°
2026-05-03 22:40 39.86216 -104.67085 5375 ft 13 kts
2026-05-03 22:40 39.86232 -104.67084 5374 ft 3 kts
2026-05-03 22:40 39.86252 -104.67084 5374 ft 0 kts